Find Starlink 37966

NORAD ID: 100478 Int'l Des: 2026-196 Owner: SPXS Country: US Constellation: starlink operational

当前视图

正在加载3D地球...

About Starlink 37966

Starlink 37966 (NORAD 100478) is a starlink constellation satellite launched Aug 25, 2026 by SPXS of US. with a mass of 575.00 kg.

即将过境

Passes for default location (London). Set your location on the main map for personalized predictions.

高度历史

Loading altitude history...

两行轨道根数

1 A0478U 26196F 26254.42568253 .00167912 00000-0 87712-3 0 9991
2 A0478 53.1573 286.9616 0001825 84.2153 275.9077 15.79870390 3922
Epoch: Sep 11, 2026 • Age: 13 hours

当前状态

高度 346.0 km
远地点 / 近地点 N/A
速度 7.70 km/s
星下点 -43.65°S, 167.98°E
发射日期 Aug 25, 2026
运行时间 17 days
类型 internet

技术详情

分类 Payload
质量 575.00 kg
干质量 530.00 kg
总质量 575.00 kg
长度 0.30 m
直径 4.10 m
跨度 29.00 m
形状 Box + pan
制造商 SPXS
平台类型 Starlink V2MO
阶段状态 In Orbit
所有者/国家 SPXS/US

Most Searched